Total_Precipitation_Accumulation
0.00 0.00 0.00 0.00 0.00 0.00 0.00 0.00 0.00 0.00 0.00 0.00 0.01 0.02 0.05 0.06 0.06 0.09 0.18 0.31 0.30 0.36 0.47 0.62 0.91 1.21 1.49 1.70 1.72 1.44 1.08 0.87 0.77 0.81 0.92 1.08 1.25 1.41 1.52 1.55 1.55 1.62 1.66 1.62
0.00 0.00 0.00 0.00 0.00 0.00 0.00 0.00 0.00 0.01 0.00 0.00 0.02 0.04 0.09 0.10 0.14 0.19 0.23 0.35 0.38 0.40 0.49 0.65 0.98 1.27 1.54 1.62 1.51 1.45 1.33 1.24 1.13 1.26 1.50 1.80 2.05 2.19 2.38 2.54 2.66 2.71 2.62 2.42
0.00 0.00 0.00 0.00 0.00 0.00 0.00 0.00 0.01 0.02 0.01 0.02 0.04 0.10 0.13 0.18 0.17 0.22 0.28 0.40 0.44 0.54 0.60 0.72 1.03 1.26 1.39 1.54 1.53 1.53 1.57 1.57 1.53 1.77 2.17 2.57 2.89 3.09 3.24 3.32 3.34 3.24 2.96 2.71
0.00 0.00 0.00 0.00 0.00 0.00 0.00 0.00 0.00 0.02 0.02 0.03 0.04 0.13 0.19 0.16 0.17 0.19 0.26 0.25 0.32 0.35 0.44 0.60 0.86 1.19 1.21 1.34 1.45 1.48 1.57 1.75 2.03 2.27 2.63 3.17 3.59 3.81 3.86 3.63 3.37 3.03 2.71 2.43
0.00 0.00 0.00 0.00 0.00 0.00 0.00 0.00 0.01 0.02 0.04 0.04 0.04 0.11 0.26 0.20 0.16 0.21 0.25 0.25 0.25 0.27 0.32 0.45 0.58 0.81 1.06 1.23 1.33 1.45 1.55 1.84 2.31 2.86 3.30 3.76 4.11 4.10 3.82 3.43 2.93 2.59 2.30 2.02
0.00 0.00 0.00 0.00 0.00 0.00 0.00 0.00 0.02 0.04 0.03 0.06 0.05 0.10 0.27 0.31 0.23 0.23 0.25 0.29 0.28 0.26 0.27 0.31 0.42 0.60 0.83 1.01 1.17 1.39 1.61 1.88 2.32 2.80 3.32 3.68 3.89 3.83 3.52 2.99 2.51 2.19 1.90 1.62
0.01 0.01 0.00 0.00 0.00 0.00 0.00 0.00 0.01 0.04 0.03 0.04 0.06 0.13 0.35 0.44 0.39 0.32 0.26 0.27 0.28 0.27 0.29 0.34 0.39 0.46 0.59 0.73 0.93 1.15 1.35 1.67 1.95 2.31 2.74 2.82 2.79 2.65 2.36 2.19 2.00 1.68 1.35 1.10
0.03 0.03 0.02 0.00 0.00 0.00 0.00 0.00 0.00 0.03 0.04 0.05 0.10 0.26 0.49 0.46 0.43 0.36 0.31 0.26 0.27 0.29 0.29 0.34 0.40 0.48 0.63 0.74 0.85 0.96 1.14 1.35 1.52 1.63 1.74 1.71 1.58 1.51 1.43 1.33 1.13 0.92 0.74 0.60
0.04 0.04 0.02 0.00 0.00 0.00 0.00 0.00 0.00 0.01 0.03 0.08 0.21 0.38 0.56 0.56 0.49 0.43 0.37 0.30 0.29 0.32 0.34 0.39 0.45 0.51 0.60 0.66 0.75 0.75 0.76 0.88 0.92 0.90 0.89 0.89 0.90 0.87 0.80 0.69 0.56 0.47 0.39 0.31
0.04 0.03 0.01 0.01 0.00 0.00 0.00 0.00 0.00 0.01 0.02 0.09 0.21 0.35 0.47 0.61 0.57 0.49 0.42 0.34 0.32 0.35 0.40 0.44 0.46 0.48 0.45 0.45 0.48 0.49 0.46 0.46 0.48 0.50 0.48 0.47 0.49 0.47 0.39 0.34 0.30 0.25 0.20 0.16
0.04 0.05 0.03 0.01 0.01 0.01 0.01 0.01 0.01 0.01 0.02 0.06 0.20 0.47 0.59 0.81 0.85 0.73 0.58 0.44 0.39 0.42 0.43 0.42 0.40 0.37 0.34 0.33 0.32 0.32 0.31 0.30 0.31 0.32 0.30 0.28 0.26 0.22 0.18 0.15 0.14 0.12 0.11 0.10
0.05 0.08 0.07 0.03 0.03 0.02 0.02 0.02 0.02 0.02 0.02 0.05 0.23 0.71 0.86 0.97 1.01 0.88 0.75 0.57 0.45 0.45 0.46 0.43 0.36 0.31 0.27 0.25 0.23 0.23 0.25 0.24 0.24 0.22 0.20 0.17 0.15 0.13 0.11 0.10 0.09 0.08 0.08 0.08
0.05 0.13 0.20 0.14 0.07 0.03 0.02 0.03 0.03 0.03 0.03 0.07 0.28 0.79 1.12 1.17 1.07 0.97 0.85 0.69 0.59 0.64 0.63 0.53 0.40 0.30 0.24 0.22 0.22 0.22 0.23 0.23 0.19 0.15 0.12 0.10 0.09 0.08 0.08 0.08 0.08 0.07 0.07 0.08
0.05 0.18 0.32 0.41 0.25 0.09 0.06 0.05 0.05 0.06 0.08 0.13 0.31 0.59 0.80 1.15 1.25 1.09 0.93 0.81 0.73 0.73 0.62 0.48 0.39 0.32 0.27 0.24 0.22 0.20 0.18 0.15 0.13 0.10 0.08 0.08 0.08 0.08 0.08 0.09 0.09 0.09 0.09 0.09
0.10 0.27 0.31 0.33 0.16 0.13 0.13 0.12 0.12 0.12 0.14 0.24 0.45 0.69 0.90 1.25 1.31 1.13 0.87 0.74 0.70 0.66 0.62 0.57 0.50 0.42 0.32 0.26 0.22 0.18 0.17 0.15 0.12 0.10 0.09 0.09 0.09 0.10 0.11 0.12 0.12 0.12 0.11 0.10
0.10 0.23 0.26 0.27 0.21 0.20 0.24 0.22 0.22 0.25 0.26 0.37 0.59 0.91 1.12 1.15 1.05 0.96 0.83 0.73 0.75 0.84 0.87 0.82 0.69 0.55 0.42 0.35 0.31 0.27 0.23 0.19 0.15 0.14 0.15 0.15 0.15 0.15 0.16 0.16 0.15 0.15 0.13 0.11
0.10 0.20 0.28 0.31 0.25 0.27 0.45 0.39 0.38 0.38 0.37 0.44 0.60 0.73 0.79 0.87 0.89 0.90 0.87 0.88 0.95 0.99 0.96 0.88 0.76 0.63 0.56 0.50 0.44 0.39 0.33 0.27 0.25 0.24 0.22 0.20 0.19 0.19 0.19 0.16 0.14 0.13 0.10 0.08
0.07 0.15 0.23 0.23 0.27 0.49 0.58 0.38 0.34 0.30 0.30 0.34 0.40 0.46 0.57 0.68 0.78 0.88 0.95 1.04 1.13 1.18 1.13 1.02 0.85 0.72 0.63 0.55 0.49 0.42 0.35 0.29 0.27 0.27 0.25 0.23 0.20 0.19 0.16 0.12 0.11 0.09 0.07 0.07
0.03 0.11 0.21 0.25 0.37 0.50 0.47 0.28 0.28 0.33 0.34 0.31 0.31 0.35 0.44 0.52 0.64 0.89 1.03 1.06 1.12 1.16 1.09 0.97 0.82 0.72 0.64 0.56 0.47 0.39 0.35 0.31 0.29 0.26 0.21 0.16 0.12 0.10 0.08 0.07 0.06 0.06 0.06 0.06
0.03 0.07 0.21 0.31 0.50 0.59 0.49 0.22 0.15 0.27 0.46 0.38 0.28 0.29 0.38 0.52 0.65 0.71 0.75 0.82 0.84 0.80 0.74 0.70 0.66 0.62 0.57 0.48 0.38 0.35 0.32 0.27 0.22 0.16 0.11 0.07 0.05 0.05 0.05 0.05 0.06 0.06 0.07 0.06
0.13 0.14 0.26 0.39 0.53 0.57 0.25 0.12 0.17 0.45 0.62 0.55 0.43 0.43 0.47 0.60 0.61 0.49 0.45 0.51 0.56 0.58 0.61 0.59 0.56 0.53 0.46 0.35 0.28 0.25 0.21 0.17 0.12 0.08 0.05 0.03 0.02 0.03 0.03 0.05 0.07 0.08 0.08 0.09
0.25 0.30 0.35 0.43 0.56 0.63 0.23 0.16 0.33 0.41 0.38 0.45 0.45 0.48 0.50 0.47 0.40 0.34 0.34 0.39 0.44 0.52 0.57 0.54 0.50 0.43 0.32 0.24 0.20 0.19 0.15 0.09 0.06 0.06 0.05 0.03 0.02 0.02 0.02 0.07 0.10 0.10 0.11 0.11
0.44 0.38 0.41 0.47 0.52 0.37 0.18 0.18 0.20 0.23 0.28 0.30 0.31 0.34 0.41 0.45 0.42 0.36 0.38 0.43 0.49 0.53 0.53 0.47 0.39 0.30 0.21 0.15 0.15 0.15 0.11 0.06 0.06 0.08 0.07 0.05 0.04 0.04 0.03 0.07 0.10 0.11 0.11 0.08
0.52 0.41 0.37 0.40 0.40 0.28 0.19 0.15 0.14 0.17 0.23 0.25 0.27 0.31 0.40 0.57 0.60 0.53 0.48 0.50 0.51 0.48 0.39 0.30 0.22 0.17 0.12 0.08 0.07 0.07 0.05 0.04 0.06 0.08 0.06 0.06 0.07 0.08 0.08 0.09 0.07 0.08 0.08 0.06
0.36 0.52 0.61 0.62 0.56 0.42 0.26 0.18 0.19 0.19 0.24 0.31 0.38 0.41 0.45 0.49 0.55 0.55 0.51 0.45 0.38 0.29 0.20 0.16 0.13 0.10 0.06 0.04 0.03 0.02 0.02 0.03 0.06 0.07 0.06 0.06 0.06 0.08 0.13 0.13 0.06 0.04 0.05 0.02
0.14 0.39 0.77 0.94 0.71 0.58 0.44 0.35 0.37 0.37 0.36 0.37 0.36 0.36 0.36 0.33 0.33 0.38 0.37 0.31 0.24 0.17 0.12 0.11 0.08 0.05 0.03 0.02 0.01 0.01 0.01 0.01 0.05 0.08 0.06 0.04 0.04 0.05 0.08 0.13 0.14 0.05 0.01 0.00